User: anonymous
Location: Unspecified
(0.0000°N, 0.0000°E)
Time: 05:29:16
(UTC+02:00)
Language:

YAOGAN 3 - Orbit

View from above orbital plane
View from above orbital plane
View from above satellite
View from above satellite

Ground track
Ground track

The orbit data is extracted from the following two-line orbital elements,

1 32289U 07055A   14259.72934891  .00000642  00000-0  87658-4 0  5812
2 32289 097.9451 250.9837 0002057 071.4211 288.7225 14.81979373370089
Epoch (UTC): 16 September 2014 17:30:15
Eccentricity: 0.0002057
inclination: 97.9451°
perigee height: 621 km
apogee height: 624 km
right ascension of ascending node: 250.9837°
argument of perigee: 71.4211°
revolutions per day: 14.81979373
mean anomaly at epoch: 288.7225°
orbit number at epoch: 37008

The dashed part of the orbit path shows where the satellite is in the earth's shadow,  

DLR